Regional Weather Roundup
Issued by NWS Mobile, AL

Home | Current Version | Previous Version | Text Only | Print | Product List | Glossary On
Versions: 1 2 3 4 5 6 7 8 9 10 11 12 13 14 15 16 17 18 19 20 21 22 23 24 25 26 27
000
ASUS44 KMOB 241913
RWRMOB
REGIONAL WEATHER ROUNDUP
NATIONAL WEATHER SERVICE MOBILE AL
200 PM CDT SUN SEP 24 2017

NOTE: "FAIR" INDICATES FEW OR NO CLOUDS BELOW 12,000 FEET WITH NO
      SIGNIFICANT WEATHER AND/OR OBSTRUCTIONS TO VISIBILITY.

  * THESE STATIONS ARE PART OF THE UNIVERSITY OF SOUTH ALABAMA
    MESONET AND ARE NOT UNDER NWS OR FAA QUALITY CONTROL.

ALZ061>064-242000-
COASTAL ALABAMA

CITY           SKY/WX    TMP DP  RH WIND       PRES   REMARKS
MOBILE REG APT CLOUDY    84  68  58 E12       29.96F
BROOKLEY FIELD CLOUDY    81  73  76 E6        29.96F
USA CAMPUS*    NOT AVBL
DOG RIVER*     NOT AVBL


CITY           SKY/WX    TMP DP  RH WIND       PRES   REMARKS
GULF SHORES    CLOUDY    81  73  77 NE8       29.94F

$$

ALZ051>060-242000-
INTERIOR SOUTHWEST AND SOUTH CENTRAL ALABAMA

CITY           SKY/WX    TMP DP  RH WIND       PRES   REMARKS
GREENVILLE     CLOUDY    85  63  47 E9        29.97F
EVERGREEN      CLOUDY    85  65  51 E8        29.97F
ATMORE*          N/A    N/A N/A N/A NE5         N/A
ANDALUSIA/OPP  CLOUDY    88  63  43 SE10      29.96F
ANDALUSIA*       N/A     82  66  57 E10       29.97F
FLORALA APT    NOT AVBL
FLORALA*         N/A     81  70  69 N5        30.64F

$$

FLZ001>006-242000-
WESTERN FLORIDA PANHANDLE

CITY           SKY/WX    TMP DP  RH WIND       PRES   REMARKS
PENSACOLA      CLOUDY    81  71  71 SE6       29.96S
NAS PENSACOLA  CLOUDY    77  71  82 E6        29.95F
MILTON         CLOUDY    80  70  71 E7        29.96F
WHTNG S FIELD  NOT AVBL


CITY           SKY/WX    TMP DP  RH WIND       PRES   REMARKS
JAY*           NOT AVBL
DUKE FIELD     CLOUDY    80  71  74 N5        29.95F
CRESTVIEW      CLOUDY    81  70  69 CALM      29.97F
VALPARAISO     LGT RAIN  79  72  79 CALM      29.95S
DESTIN         LGT RAIN  82  72  71 CALM      29.95S

$$

MSZ076-079-242000-
INTERIOR SOUTHEAST MISSISSIPPI

CITY           SKY/WX    TMP DP  RH WIND       PRES   REMARKS
LEAKESVILLE*     N/A     79  68  69 CALM      29.97F
AGRICOLA*        N/A     82  70  65 W2        29.94F

$$

MARINE OBSERVATIONS

STATION/POSITION TIME  TEMP    WIND        PRES    WAVE
                       AIR SEA DIR/SP/G            HT/PER
                 (UTC) (F)     (DEG/KT/KT) (MB)    (FT/S)
PASCAGOULA       1842   80      80/  7/ 11 1013.8F
PETIT BOIS ISLND 1842   79      70/ 11/ 13 1014.7F
GRAND BAY        1730   77      80/  8     1016.0R
KATRINA CUT      1830   77      60/ 10     1014.2F
CEDAR POINT      1830   77      60/  8     1014.2F
E DAUPHIN ISLAND 1800   77      20/  6/  7 1014.3F
MIDDLE BAY LIGHT 1830   79      40/  7     1014.2F
USCG MOBILE BAY  1842   78 83   90/  5/  7 1014.2F
STATE DOCKS      1842   81 82              1014.2F
MEAHER PARK      1830   80      80/  4     1014.9R
WEEKS BAY        1745   79                 1015.0S
FORT MORGAN      1842   78      50/  7/  9   N/A
12 S ORANGE BCH  1850   77 83  100/ 12/ 14 1013.8F   2/ 5
PENSACOLA BAY    1842   79 83              1014.5F
64 S DAUPHIN ISL 1850           90/ 17/ 21 1012.8F   4/ 6
67 S FORT MORGAN 1830   81                 1012.5S

$$

SELECTED LOCATIONS ACROSS THE REGION

CITY           SKY/WX    TMP DP  RH WIND       PRES   REMARKS
NEW ORLEANS    SUNNY     88  70  55 E13G21    29.91F
GULFPORT       MOSUNNY   85  67  54 SE14      29.93F
PASCAGOULA AP  MOSUNNY   83  69  62 VRB5      29.94F
PASCAGOULA*      N/A     79  70  73 E3          N/A
HATTIESBURG    SUNNY     88  69  53 VRB5      29.94F
LAUREL         LGT RAIN  84  71  65 NE5       29.96F
MERIDIAN       SUNNY     89  66  46 SE9       29.97F
JACKSON        PTSUNNY   89  67  47 NE7       29.96F
MONTGOMERY     CLOUDY    89  63  41 E10       29.98F
TROY           PTSUNNY   85  64  49 E10G17    29.98F
ASHFORD*         N/A     82  66  57 E10       29.97F
DOTHAN         PTSUNNY   84  67  56 E10       29.99F
PANAMA CITY    CLOUDY    77  68  73 NW8       29.93F

$$





USA.gov is the U.S. government's official web portal to all federal, state and local government web resources and services.